カタログに戻る

GALILEO 8 (264)

運用中ナビゲーションMEO
NORAD 40545·PAYLOAD·🇪🇺 EU

打ち上げ Mar 27, 2015 から Guiana Space Centre

Loading…

次のパス (今後24時間)

TLE

最新Source: CelesTrak SupGP

元期: Sep 13, 2026, 23:59 UTC

1 40545C 15017B   26256.99979167  .00000000  00000+0  00000+0 0  2564
2 40545  56.7569 339.1939 0004871 241.8558  91.7126  1.70476116    18

AllMySatでGALILEO 8 (264)をリアルタイム追跡

Download on the App Store